Regional Weather Roundup
Issued by NWS Goodland, KS

Home | Current Version | Previous Version | Text Only | Print | Product List | Glossary Off
Versions: 1 2 3 4 5 6 7 8 9 10 11 12 13 14 15 16 17 18 19 20 21 22 23 24 25 26 27 28 29 30 31 32 33 34 35 36 37 38 39 40 41 42 43 44 45 46 47 48 49 50

000
ASUS43 KGLD 022308
RWRGLD

GOODLAND FORECAST AREA HOURLY WEATHER ROUNDUP
NATIONAL WEATHER SERVICE GOODLAND KS
500 PM MDT THU JUL 02 2015

...OFFICIAL OBSERVATIONS...

CITY           SKY/WX    TMP DP  RH WIND       PRES   REMARKS
GOODLAND KS    SUNNY     86  56  35 N13G21    30.05F
HILL CITY KS   LGT RAIN  91  59  33 N9        29.95F
IMPERIAL NEB   SUNNY     86  54  33 N10       30.04F
MCCOOK NEB     MOSUNNY   88  57  34 N14       29.98F
AKRON CO       MOSUNNY   82  54  37 N15       30.12F
BURLINGTON CO  SUNNY     84  53  34 NW7G18    30.10F
LIMON CO       SUNNY     78  52  40 S3        30.17F
$$

...UNOFFICIAL OBSERVATIONS...

CITY           SKY/WX    TMP DP  RH WIND       PRES   REMARKS
COLBY KS       SUNNY     90  57  33 NW14      30.02S
GOVE KS          N/A     88  32  13 MISG        N/A
NORTON KS      SUNNY     88  52  29 N12G18    29.95S
SHARON SPRINGS   N/A     86  58  38 N6          N/A
KIT CARSON CO    N/A     82  58  43 MISG        N/A
$$


USA.gov is the U.S. government's official web portal to all federal, state and local government web resources and services.